Location: Hopville
(44.8032°N, 123.1329°W)
Time: 03:57:36
(UTC+00:00)

USA 215 - Pass Details

Date: 24 January 2021
Orbit: 1103 x 1105 km, 123.0° (Epoch: 14 February)

Event Time Altitude Azimuth Distance (km) Brightness Sun altitude
Rises 13:54:08 0° 66° (ENE) 3,925 7.1 -18.6°
Reaches altitude 10° 13:56:55 10° 56° (NE) 2,966 6.2 -18.1°
Maximum altitude 14:02:26 30° 358° (N) 1,851 4.3 -17.2°
Enters shadow 14:06:06 18° 312° (NW) 2,407 4.6 -16.5°
